This is the latest recevied weather packets stored in our database for station/object DH1NAI-6. If no packets are shown the sender has not sent any weather packets the latest 10 day(s).
| Time | Temp. | Humidity | Pressure | Rain* | Wind** | Luminosity | Snow |
|---|---|---|---|---|---|---|---|
| 1787455319 | 3.33° C | 99% | 1019.3 hPa | 0 mm | - | 0 W/m² | - |
| 1787454695 | 3.33° C | 99% | 1019.3 hPa | 0 mm | - | 0 W/m² | - |
| 1787454087 | 3.33° C | 99% | 1019.1 hPa | 0 mm | - | 0 W/m² | - |
| 1787453480 | 3.33° C | 99% | 1019.3 hPa | 0 mm | - | 0 W/m² | - |
| 1787452871 | 3.33° C | 99% | 1019.4 hPa | 0 mm | - | 0 W/m² | - |
| 1787452264 | 3.33° C | 99% | 1019.3 hPa | 0 mm | - | 0 W/m² | - |
| 1787451655 | 3.33° C | 99% | 1019.5 hPa | 0 mm | - | 0 W/m² | - |
| 1787451048 | 3.89° C | 99% | 1019.3 hPa | 0 mm | - | 0 W/m² | - |
| 1787450433 | 4.44° C | 99% | 1019.4 hPa | 0 mm | - | 0 W/m² | - |
| 1787449832 | 3.89° C | 99% | 1019.5 hPa | 0 mm | - | 0 W/m² | - |
| 1787449223 | 3.89° C | 99% | 1019.5 hPa | 0 mm | - | 0 W/m² | - |
| 1787448599 | 4.44° C | 99% | 1019.4 hPa | 0 mm | - | 0 W/m² | - |
| 1787447975 | 4.44° C | 99% | 1019.6 hPa | 0 mm | - | 0 W/m² | - |
| 1787447367 | 4.44° C | 99% | 1019.3 hPa | 0 mm | - | 0 W/m² | - |
| 1787446760 | 4.44° C | 99% | 1019.2 hPa | 0 mm | - | 0 W/m² | - |
| 1787446151 | 4.44° C | 99% | 1019.3 hPa | 0 mm | - | 0 W/m² | - |
| 1787445544 | 5° C | 99% | 1019.2 hPa | 0 mm | - | 0 W/m² | - |
| 1787444935 | 4.44° C | 99% | 1019.4 hPa | 0 mm | - | 0 W/m² | - |
| 1787444328 | 5° C | 99% | 1019.2 hPa | 0 mm | - | 0 W/m² | - |
| 1787443713 | 5° C | 99% | 1019.5 hPa | 0 mm | - | 0 W/m² | - |
| 1787443112 | 5° C | 99% | 1019.3 hPa | 0 mm | - | 0 W/m² | - |
| 1787442503 | 5.56° C | 99% | 1019.5 hPa | 0 mm | - | 0 W/m² | - |
| 1787441896 | 5.56° C | 99% | 1019.4 hPa | 0 mm | - | 0 W/m² | - |
| 1787441287 | 5.56° C | 99% | 1019.2 hPa | 0 mm | - | 0 W/m² | - |
| 1787440680 | 5.56° C | 99% | 1019.4 hPa | 0 mm | - | 0 W/m² | - |
* Rain latest hour (hover to see other rain measurements)
** Current wind speed in m/s (hover to see current wind gust speed)